User: anonymous   Login
Location: Albany
(35.0000°S, 118.0000°E)
Time: 21:29:17
(UTC-04:00)
Language:

Cosmos 1758 Rocket - Orbit

View from above orbital plane
View from above orbital plane
View from above satellite
View from above satellite

Ground track
Ground track

The orbit data is extracted from the following two-line orbital elements,

1 16792U 86046B   16274.57368896  .00000173  00000-0  18189-4 0  9993
2 16792  82.4801  86.6816 0025703  69.2782 354.4728 14.83091245636405
Epoch (UTC): 30 September 2016 13:46:06
Eccentricity: 0.0025703
inclination: 82.4801°
perigee height: 601 km
apogee height: 637 km
right ascension of ascending node: 86.6816°
argument of perigee: 69.2782°
revolutions per day: 14.83091245
mean anomaly at epoch: 354.4728°
orbit number at epoch: 63640

The dashed part of the orbit path shows where the satellite is in the earth's shadow,  

DLR